000  
ASUS46 KEKA 260613  
RWREKA  
EUREKA AREA WEATHER ROUNDUP  
NATIONAL WEATHER SERVICE EUREKA CA  
1100 PM PDT MON OCT 25 2021  
 
NOTE: "FAIR" INDICATES FEW OR NO CLOUDS BELOW 12,000 FEET WITH NO  
SIGNIFICANT WEATHER AND/OR S TO VISIBILITY
.  
 
SOUTHWEST OREGON...  
 
CITY SKY/WX TMP DP RH WIND PRES REMARKS
 
MEDFORD MOCLDY 49 46 90 SW3 29.88F  
KLAMATH FALLS PTCLDY 41 33 73 W7 29.89S  
NORTH BEND CLOUDY 54 51 90 S8 29.85S  
ROSEBURG CLOUDY 50 46 86 CALM 29.85R  
SEXTON SUMMIT FOG 39 37 92 S12G22 29.84S VSB 1/2  
BROOKINGS LGT RAIN 52 52 100 S3 29.93R FOG  
 
NORTHWEST CALIFORNIA...  
 
CITY SKY/WX TMP DP RH WIND PRES REMARKS
 
CRESCENT CITY LGT RAIN 54 52 93 S12 29.94R FOG  
MCKINLEYVILLE LGT RAIN 53 48 83 SE6 29.95S  
EUREKA LGT RAIN 53 50 90 S9 29.96R  
FORTUNA MOCLDY 52 48 87 SE8 29.97S  
WEAVERVILLE NOT AVBL  
TRINITY CENTER CLOUDY 43 39 87 NW3 29.96S  
UKIAH MOCLDY 47 43 86 CALM 30.03R  
 
NORTH & CENTRAL CALIFORNIA...  
 
CITY SKY/WX TMP DP RH WIND PRES REMARKS
 
YREKA MOCLDY 44 37 76 SE6 29.91S  
MOUNT SHASTA CLOUDY 40 37 89 CALM 29.93R  
REDDING CLOUDY 58 40 51 SW7 29.95R  
RED BLUFF PTCLDY 53 45 74 SW5 29.97R  
CHICO NOT AVBL  
YUBA CITY CLEAR 54 47 77 SE8 30.01R  
SACRAMENTO CLEAR 53 50 89 SW7 30.02R  
SANTA ROSA MOCLDY 49 48 97 CALM 30.04R  
NAPA PTCLDY 52 49 89 W3 30.03R  
TRAVIS AFB NOT AVBL  
SAN FRANCISCO PTCLDY 55 50 83 SW5 30.05R  
OAKLAND PTCLDY 58 52 80 W7 30.05R  
STOCKTON NOT AVBL  
SALINAS CLOUDY 55 50 83 CALM 30.06R  
MONTEREY LGT RAIN 54 50 86 S5 30.07R  
 

 
 
 
CLICK HERE TO GO TO PREVIOUS BULLETINS.

The Nexlab CA Page Main Text Page